Flag for U.S.A. Weather past 2 weeks in Denver, Colorado, U.S.A.

Now
70 °F

Light rain. Partly cloudy.


Feels Like: 70 °F
Forecast: 58 / 83 °F
Wind: 10 mph from Northwest

Location: Buckley Air Force Base

Current Time: Aug 20, 2014 at 11:05:15 PM

Latest Report: Aug 20, 2014 at 10:03 PM


Visibility: 10 mi

Pressure: 30.08 "Hg

Humidity: 57%

Dew point: 54 °F

Location of DenverLocation

Historic Weather in Denver — Graph

°F

Denver temperature yesterday

Maximum temperature yesterday: 90 °F (at 2:58 PM)
Minimum temperature yesterday: 58 °F (at 3:58 AM)
Average temperature yesterday: 69 °F

Past Weeks' High & Low Weather Summary

 TemperatureHumidityPressure
High90 °F (Aug 19, 2:58 PM)96% (Aug 7, 5:58 AM)30.23 "Hg (Aug 7, 5:58 AM)
Low56 °F (Aug 11, 5:58 AM)17% (Aug 16, 4:58 PM)29.67 "Hg (Aug 19, 2:58 PM)
Average70 °F53%29.96 "Hg
* Reported Aug 5 9:58 PM — Aug 20 9:58 PM, Denver, Weather by CustomWeather, © 2014

Note: Actual official high and low records may vary slightly from our data, if they occured in-between our weather recording intervals... More about our weather records

Advertising

Denver weather history for previous 24 hours

 ConditionsComfort  
Time TempWeatherWind HumidityBarometerVisibility
9:58 PM
Aug 20
70 °FPassing clouds.9 mph56%29.85 "Hg10 mi
8:58 PM73 °FPassing clouds.7 mph52%29.78 "Hg10 mi
7:58 PM73 °FScattered showers. Scattered clouds.No wind46%29.76 "Hg10 mi
6:58 PM76 °FScattered clouds.7 mph46%29.75 "Hg10 mi
5:58 PM81 °FScattered clouds.13 mph35%29.73 "Hg10 mi
4:58 PM78 °FScattered showers. Broken clouds.14 mph41%29.74 "Hg10 mi
3:58 PM80 °FScattered showers. Broken clouds.12 mph36%29.73 "Hg10 mi
2:58 PM82 °FScattered showers. Broken clouds.3 mph30%29.72 "Hg10 mi
1:58 PM84 °FScattered showers. Broken clouds.5 mph28%29.72 "Hg10 mi
12:58 PM80 °FScattered clouds.3 mph36%29.74 "Hg10 mi
11:58 AM79 °FScattered clouds.No wind40%29.75 "Hg10 mi
10:58 AM75 °FScattered clouds.2 mph43%29.76 "Hg10 mi
9:58 AM72 °FScattered clouds.2 mph50%29.78 "Hg10 mi
8:58 AM68 °FScattered clouds.No wind57%29.78 "Hg10 mi
7:58 AM63 °FScattered clouds.1 mph71%29.80 "Hg10 mi
6:58 AM61 °FPartly cloudy.8 mph76%29.78 "Hg10 mi
5:58 AM61 °FPassing clouds.5 mph74%29.75 "Hg10 mi
4:58 AM62 °FPassing clouds.2 mph73%29.73 "Hg10 mi
3:58 AM63 °FPassing clouds.5 mph74%29.70 "Hg10 mi
2:58 AM63 °FPassing clouds.5 mph73%29.68 "Hg10 mi
1:58 AM64 °FPartly cloudy.7 mph71%29.68 "Hg10 mi
12:58 AM64 °FPartly cloudy.5 mph75%29.70 "Hg10 mi
11:58 PM
Aug 19
64 °FPartly cloudy.7 mph73%29.71 "Hg10 mi
Weather by CustomWeather, © 2014

See weather overviewHow to use our weather pages